www.pogodaiklimat.ru

АРХИВ ПОГОДЫ в Филадельфии

Время (UTC), дата Ветер
(напр.,м/с)
 
Видим.   Явления Облачность Т
(С)
Тd
(С)
f
(%)
Тe
(С)
Тes
(С)
Комфортность

P
(гПа)

Po
(гПа)
Тmin
(С)
Tmax
(С)
R
(мм)
SD
(см)
21:37 22.06 В  16 км    10/8 690 м
[средняя] 
+20.0  +16.7  81  +22  +22  комфорт    1014.2         
21:54 22.06 В  16 км    10/8 660 м
[средняя] 
+20.0  +16.1  78  +22  +22  комфорт    1014.2         
22:45 22.06 В  16 км  слабый дождь  10/5 510 м
[средняя] 
+19.4  +16.7  84  +21  +21  комфорт    1014.5         
22:54 22.06 В  16 км  слабый дождь  10/5 510 м
[средняя] 
+18.9  +16.7  87  +20  +20      1014.5  +18.9  +22.8  0.3   
23:16 22.06 В  8 км  слабый дождь, дымка  10/10 570 м  +19.0  +17.0  88  +20  +20      1014.2         
23:21 22.06 ЮВ  5 км  слабый дождь, дымка  10/10 510 м  +18.0  +17.0  94  +17  +17      1014.2         
23:40 22.06 В  11 км  слабый дождь  10/10 540 м  +18.0  +17.0  94  +18  +18      1014.2         
23:50 22.06 В  6 км  дождь, дымка  10/10 540 м  +18.0  +16.0  88  +18  +18      1014.5         
23:54 22.06 В  6 км  дождь, дымка  10/10 540 м  +17.8  +16.1  90  +18  +18    1014.8  1014.5         
00:37 23.06 В  4
{8} 
16 км  слабый дождь  10/10 540 м  +18.0  +17.0  94  +18  +18      1014.5         
00:54 23.06 СВ  4
{8} 
16 км    10/10 360 м  +17.8  +16.7  93  +17  +17      1014.2         
01:48 23.06 В  6
{8} 
16 км    10/10 300 м  +18.0  +17.0  94  +17  +17      1014.2         
01:54 23.06 В  16 км  слабый дождь  10/10 300 м  +18.3  +17.2  93  +18  +18    1014.2  1013.9      3.8   
02:17 23.06 В  16 км  слабый дождь  10/10 240 м  +18.3  +17.2  93  +18  +18      1013.9         
02:54 23.06 В  16 км    10/10 210 м  +18.0  +17.0  94  +17  +17    1013.5  1013.2         
03:54 23.06 В  16 км  слабый дождь  10/10 210 м  +18.0  +18.0  100  +17  +17    1013.6  1013.5         
04:03 23.06 В  11 км  слабый дождь  10/10 210 м  +18.3  +17.8  97  +18  +18      1013.2         
04:54 23.06 СВ  14 км    10/10 240 м  +18.0  +18.0  100  +18  +18    1012.5  1012.2  +17.2  +18.9     
05:21 23.06 В  16 км    10/10 180 м  +18.3  +17.8  97  +18  +18      1011.8         
05:54 23.06 СВ  16 км    10/10 180 м  +18.3  +17.2  93  +18  +18    1012.1  1011.8         
06:13 23.06 В  16 км    10/10 240 м  +18.3  +17.2  93  +18  +18      1011.5         
06:54 23.06 СВ  16 км    10/10 270 м  +17.8  +16.7  93  +17  +17    1011.1  1010.8         
07:54 23.06 СВ  16 км    10/10 240 м  +17.8  +16.7  93  +17  +17    1011.1  1010.8         
08:07 23.06 СВ  11 км  слабый дождь  10/10 210 м  +18.0  +17.0  94  +18  +18      1010.8         
08:15 23.06 СВ  10 км  слабый дождь, дымка  10/10 210 м  +17.0  +17.0  100  +16  +16      1010.8         
08:42 23.06 СВ  11 км  слабая морось  10/10 210 м  +17.0  +17.0  100  +16  +16      1010.5         
08:54 23.06 СВ  5
{9} 
13 км    10/10 210 м  +17.2  +16.7  97  +16  +16    1010.7  1010.5         
09:12 23.06 СВ  16 км    10/10 210 м  +17.2  +16.7  97  +17  +17      1010.5         
09:29 23.06 СВ  16 км    10/10 180 м  +17.2  +16.7  97  +17  +17      1010.5         
09:42 23.06 СВ  13 км    10/10 180 м  +17.2  +16.7  97  +16  +16      1010.5         
09:54 23.06 СВ  11 км    10/10 180 м  +17.2  +16.7  97  +17  +17    1010.9  1010.5         
10:46 23.06 СВ  6 км  дымка  10/10 150 м  +17.8  +16.7  93  +17  +17      1010.5         
10:54 23.06 СВ  6 км  дымка  10/10 150 м  +17.8  +16.7  93  +17  +17    1010.8  1010.5  +17.2  +18.3     
10:59 23.06 СВ  8 км  дымка  10/10 150 м  +17.8  +17.2  96  +18  +18      1010.5         
11:54 23.06 СВ  8 км  слабая морось, дымка  10/10 150 м  +17.8  +17.2  96  +18  +18    1011.2  1010.8         
12:11 23.06 СВ  5 км  слабая морось, дымка  10/10 120 м  +17.8  +17.2  96  +18  +18      1010.8         
12:45 23.06 нст  6 км  слабая морось, дымка  10/10 150 м  +17.8  +17.2  96  +18  +18      1011.2         
12:54 23.06 СВ  6 км  слабая морось, дымка  10/10 150 м  +17.8  +17.2  96  +18  +18    1011.2  1010.8         
13:54 23.06 СВ  6 км  дымка  10/10 150 м  +18.0  +17.0  94  +18  +18    1011.2  1011.2         
14:39 23.06 СВ  10 км  дымка  10/10 150 м  +18.9  +17.8  93  +20  +20      1010.8         
14:54 23.06 СВ  10 км  дымка  10/10 150 м  +18.9  +17.8  93  +20  +20    1010.9  1010.5         
15:01 23.06 С  13 км    10/10 150 м  +19.4  +17.8  90  +22  +22  комфорт    1010.5         
15:54 23.06 СВ  14 км    10/10 180 м  +19.0  +18.0  94  +21  +21  комфорт  1010.8  1010.5         
16:23 23.06 СВ  14 км    10/10 210 м  +20.0  +18.3  90  +24  +24  комфорт    1010.1         
16:54 23.06 В  13 км    10/10 240 м  +20.6  +18.3  87  +25  +25  комфорт  1010.4  1010.1         
17:54 23.06 В  13 км    10/10 240 м  +21.1  +18.3  84  +25  +25  комфорт  1009.9  1009.5         
18:54 23.06 В  14 км    10/10 240 м  +21.1  +18.9  87  +25  +25  комфорт  1009.5  1009.1         
19:54 23.06 В  14 км    10/10 240 м  +21.7  +19.4  87  +27  +27  душно  1009.7  1009.5         

 

Местоположение метеостанции Philadelphia International Airport: широта 39.8733 долгота -75.2268 высота над уровнем моря 2 м.

В архиве по умолчанию представлена погода в Филадельфии за последние 1-2 суток. Обновление информации о фактической погоде в базе происходит ежечасно! Архивные данные за месяц целиком и за предыдущие месяцы Вы можете получить, выбрав интересующий диапазон дат из раскрывающегося списка и нажав кнопку "Ввод!".

Внимание! Архив погоды МЕТАР в базе сайта в настоящее время начинается c 1 января 2013 г. Нет смысла пытаться выбрать более раннюю дату.

Внимание! Время в таблицах - всемирное. Для получения местного времени необходимо прибавить поправку, которая в Филадельфии равна -5 ч.

Ветер - указаны скорость ветра в м/с и направление, откуда дует ветер: С - северный, СВ - северо-восточный, В - восточный, ЮВ - юго-восточный, Ю - южный, ЮЗ - юго-западный, З - западный, СЗ - северо-западный.
Видимость - горизонтальная дальность видимости в метрах или километрах. При видимости от 1 до 10 км при отсутствии осадков обычно наблюдается дымка, при ухудшении видимости до 1 км и менее - туман. В сухую погоду видимость может ухудшаться дымом, пылью или мглою.
Атмосферные явления - указаны явления, наблюдавшиеся в указанный момент времени.
Облачность - указаны через наклонную черту верхняя и нижняя облачность в баллах и высота нижней границы облаков в метрах. Внимание: облачность, как и прочие метеорологические величины в США измеряются автоматическими метеостанциями. Указанные значения в баллах носят условный характер и показывают процент времени, в течение которого, в среднем, лазерный луч высотомера отражался от облаков обратно.
T - Температура воздуха - температура, измеренная на высоте 2 м над землей.
Td - Температура точки росы - температура, при понижении до которой содержащийся в воздухе водяной пар достигнет насыщения.
f - Относительная влажность воздуха - влажноcть воздуха, измеренная на высоте 2 м над землей.
Te - Эффективная температура - температура, которую ощущает одетый по сезону человек в тени. Характеристика душности погоды. При расчете учитывается влияние влажности воздуха и скорости ветра на теплоощущения человека.
Tes - Эффективная температура на солнце - температура, которую ощущает человек, с поправкой на солнечный нагрев. Характеристика знойности погоды. Зависит от высоты солнца над горизонтом, облачности и скорости ветра. Ночью, в пасмурную погоду, а также при ветре 12 м/с и более поправка равна нулю.
P - Атмосферное давление - приведенное к уровню моря атмосферное давление.
Po - Атмосферное давление - измеренное на уровне метеостанции атмосферное давление.
Tmin - Минимальная температура - минимум температуры воздуха на высоте 2 м над землей.
Tmax - Максимальная температура - максимум температуры воздуха на высоте 2 м над землей.
R - Количество осадков - Количество выпавших осадков за 3 или 6 часов, мм.
SD - Снежный покров - Высота снежного покрова, см.